Bat Cave, NC

3:55 AM EST on February 08, 2016 (GMT -0500)
Asheville Regional

Weather History for KAVL - June, 2012

Change the Weather History Date:

Saturday, June 2, 2012

  Actual Average Record
Temperature  
Mean Temperature 60 °F 67 °F  
Max Temperature 68 °F 79 °F 94 °F (1895)
Min Temperature 51 °F 56 °F 35 °F (1966)
Degree Days  
Heating Degree Days 5 1  
Month to date heating degree days 5 2  
Since 1 June heating degree days 5 2  
Since 1 July heating degree days 3305 4183  
Cooling Degree Days 0 4  
Month to date cooling degree days 0 8  
Year to date cooling degree days 124 66  
Since 1 June cooling degree days 0 8  
Growing Degree Days 10 (Base 50)    
Moisture  
Dew Point 45 °F    
Average Humidity 63    
Maximum Humidity 83    
Minimum Humidity 42    
Precipitation  
Precipitation 0.00 in 0.14 in 1.89 in (1981)
Month to date precipitation 0.08 0.28  
Year to date precipitation 18.72 18.53  
Snow  
Snow 0.00 in 0.00 in 0.00 in ()
Month to date snowfall 0.0 0.0  
Since 1 June snowfall 0.0 0.0  
Since 1 July snowfall T 9.9  
Snow Depth 0.00 in    
Sea Level Pressure  
Sea Level Pressure 29.90 in    
Wind  
Wind Speed 10 mph (NNW)    
Max Wind Speed 22 mph    
Max Gust Speed 28 mph    
Visibility 10 miles    
Events      
T = Trace of Precipitation, MM = Missing Value Source: NWS Daily Summary

Daily Weather History Graph

Daily Weather History Graph

Search for Another Location

Airport or City:

Trip Planner

Search our weather history database for the weather conditions in past years. The results will help you decide how hot, cold, wet, or windy it might be!

Date:

Astronomy

Jun. 02, 2012 Rise Set
Actual Time 6:15 AM EDT 8:40 PM EDT
Civil Twilight 5:46 AM EDT 9:10 PM EDT
Nautical Twilight 5:10 AM EDT 9:46 PM EDT
Astronomical Twilight 4:30 AM EDT 10:26 PM EDT
Moon 6:56 PM EDT (6/2) 4:30 AM EDT (6/2)
Length of Visible Light 15h 24m
Length of Day
14h 25m
Waxing Gibbous, 95% of the Moon is Illuminated
Jun 2
Waxing Gibbous
Jun 4
Full
Jun 11
Last Quarter
Jun 19
New
Jun 26
First Quarter

Hourly Weather History & Observations

Time (EDT) Temp. Dew Point Humidity Pressure Visibility Wind Dir Wind Speed Gust Speed Precip Events Conditions
12:54 AM 55.9 °F 48.0 °F 75% 29.86 in 10.0 mi North 9.2 mph - N/A   Clear
1:54 AM 54.0 °F 46.9 °F 77% 29.86 in 10.0 mi North 8.1 mph - N/A   Clear
2:54 AM 52.0 °F 46.9 °F 83% 29.84 in 10.0 mi NNW 10.4 mph - N/A   Clear
3:54 AM 52.0 °F 46.9 °F 83% 29.83 in 10.0 mi NNW 9.2 mph - N/A   Clear
4:54 AM 52.0 °F 46.9 °F 83% 29.84 in 10.0 mi North 6.9 mph - N/A   Clear
5:54 AM 51.1 °F 46.9 °F 86% 29.86 in 10.0 mi NNW 10.4 mph - N/A   Clear
6:54 AM 52.0 °F 46.0 °F 80% 29.86 in 10.0 mi North 9.2 mph - N/A   Clear
7:54 AM 55.0 °F 44.1 °F 67% 29.88 in 10.0 mi NNW 12.7 mph 17.3 mph N/A   Clear
8:54 AM 57.2 °F 44.6 °F 63% 29.94 in 10.0 mi NNW 15.0 mph 23.0 mph N/A   Clear
9:54 AM 57.9 °F 45.0 °F 62% 29.92 in 10.0 mi North 16.1 mph 24.2 mph N/A   Partly Cloudy
10:54 AM 59.0 °F 44.1 °F 58% 29.93 in 10.0 mi North 12.7 mph 23.0 mph N/A   Mostly Cloudy
11:54 AM 61.0 °F 44.1 °F 54% 29.93 in 10.0 mi North 15.0 mph 21.9 mph N/A   Partly Cloudy
12:54 PM 63.0 °F 44.1 °F 50% 29.92 in 10.0 mi North 11.5 mph 23.0 mph N/A   Partly Cloudy
1:54 PM 66.0 °F 46.0 °F 48% 29.91 in 10.0 mi NW 11.5 mph 18.4 mph N/A   Clear
2:54 PM 66.9 °F 46.0 °F 47% 29.89 in 10.0 mi NNW 16.1 mph 20.7 mph N/A   Clear
3:54 PM 66.9 °F 44.1 °F 44% 29.90 in 10.0 mi NNW 15.0 mph 19.6 mph N/A   Clear
4:54 PM 66.9 °F 42.1 °F 40% 29.88 in 10.0 mi North 16.1 mph 26.5 mph N/A   Clear
5:54 PM 66.9 °F 42.1 °F 40% 29.89 in 10.0 mi North 11.5 mph 20.7 mph N/A   Partly Cloudy
6:54 PM 66.0 °F 42.1 °F 42% 29.90 in 10.0 mi North 10.4 mph 20.7 mph N/A   Clear
7:54 PM 63.0 °F 43.0 °F 48% 29.92 in 10.0 mi NNW 10.4 mph - N/A   Clear
8:54 PM 59.0 °F 44.1 °F 58% 29.93 in 10.0 mi Calm Calm - N/A   Clear
9:54 PM 55.9 °F 45.0 °F 67% 29.95 in 10.0 mi NW 4.6 mph - N/A   Clear
10:54 PM 54.0 °F 46.0 °F 75% 29.97 in 10.0 mi NNW 3.5 mph - N/A   Clear
11:54 PM 53.1 °F 46.9 °F 80% 29.97 in 10.0 mi Calm Calm - N/A   Clear